Flag for Germany Weather past 2 weeks in Ettlingen, Baden-Württemberg, Germany

Now
66 °F

Clear.


Feels Like: 66 °F
Forecast: 54 / 70 °F
Wind: 2 mph from North

Location: Karlsruhe - Baden Wurttemberg

Current Time: Sep 2, 2015 at 9:47:35 PM

Latest Report: Sep 2, 2015 at 9:20 PM


Visibility: 10 mi

Pressure: 29.98 "Hg

Humidity: 56%

Dew point: 50 °F

Location of EttlingenLocation

Historic Weather in Ettlingen — Graph

°F

Ettlingen temperature yesterday

Maximum temperature yesterday: 81 °F (at 12:20 PM)
Minimum temperature yesterday: 57 °F (at 11:20 PM)
Average temperature yesterday: 68 °F

Past Weeks' High & Low Weather Summary

 TemperatureHumidityPressure
High93 °F (Aug 30, 4:20 PM)94% (Aug 21, 4:50 AM)30.24 "Hg (Aug 21, 4:50 AM)
Low50 °F (Aug 20, 4:50 AM)19% (Aug 31, 3:20 PM)29.68 "Hg (Aug 24, 7:20 AM)
Average70 °F61%30.01 "Hg
* Reported Aug 18 8:20 PM — Sep 2 8:50 PM, Ettlingen, Weather by CustomWeather, © 2015

Note: Actual official high and low records may vary slightly from our data, if they occured in-between our weather recording intervals... More about our weather records

Advertising

Ettlingen weather history for previous 24 hours

 ConditionsComfort  
Time TempWeatherWind HumidityBarometerVisibility
8:50 PM
Wed, Sep 2
66 °FSunny.2 mph60%29.98 "Hg10 mi
8:20 PM66 °FSunny.2 mph60%29.98 "Hg10 mi
7:50 PM66 °FSunny.2 mph56%29.98 "Hg10 mi
7:20 PM68 °FSunny.2 mph53%29.98 "Hg10 mi
6:50 PM68 °FSunny.3 mph53%29.98 "Hg10 mi
6:20 PM70 °FSunny.2 mph46%29.98 "Hg10 mi
5:50 PM70 °FSunny.2 mph50%29.98 "Hg10 mi
5:20 PM70 °FSunny.No wind50%29.98 "Hg10 mi
4:50 PM70 °FSunny.2 mph46%29.98 "Hg10 mi
4:20 PM70 °FSunny.3 mph46%29.98 "Hg10 mi
3:50 PM70 °FSunny.3 mph50%29.98 "Hg10 mi
3:20 PM72 °FSunny.3 mph44%29.98 "Hg10 mi
2:50 PM70 °FSunny.3 mph50%30.01 "Hg10 mi
2:20 PM72 °FSunny.3 mph47%30.01 "Hg10 mi
1:50 PM70 °FSunny.3 mph46%30.01 "Hg10 mi
1:20 PM68 °FScattered clouds.2 mph56%30.01 "HgN/A
12:50 PM68 °FScattered clouds.3 mph60%30.04 "HgN/A
12:20 PM66 °FPartly sunny.3 mph64%30.04 "HgN/A
11:50 AM64 °FScattered clouds.3 mph68%30.04 "HgN/A
11:20 AM64 °FPartly sunny.3 mph73%30.04 "HgN/A
10:50 AM63 °FBroken clouds.3 mph77%30.04 "Hg5 mi
10:20 AM61 °FBroken clouds.3 mph83%30.04 "Hg4 mi
9:50 AM59 °FBroken clouds.5 mph88%30.04 "Hg4 mi
9:20 AM59 °FBroken clouds.2 mph88%30.07 "Hg4 mi
8:50 AM59 °FFog.3 mph94%30.07 "Hg3 mi
8:20 AM59 °FPartly sunny.1 mph88%30.07 "Hg5 mi
7:50 AM59 °FFog.3 mph88%30.04 "Hg5 mi
7:20 AM57 °FPassing clouds.3 mph94%30.04 "Hg6 mi
6:50 AM59 °FPassing clouds.No wind88%30.04 "Hg5 mi
5:50 AM59 °FPassing clouds.2 mph88%30.04 "HgN/A
5:20 AM59 °FPassing clouds.1 mph88%30.07 "Hg6 mi
4:50 AM59 °FPassing clouds.5 mph88%30.07 "HgN/A
11:20 PM
Tue, Sep 1
57 °FClear.3 mph94%30.07 "Hg10 mi
10:50 PM59 °FClear.5 mph88%30.07 "Hg10 mi
10:20 PM59 °FPassing clouds.5 mph94%30.04 "HgN/A
9:50 PM61 °FClear.3 mph88%30.04 "Hg10 mi
9:20 PM63 °FClear.2 mph83%30.04 "Hg10 mi
Weather by CustomWeather, © 2015

See weather overviewHow to use our weather pages